Location: Kolin
(50.0330°N, 15.2000°E)
Time: 09:42:34
(UTC+02:00)

ISS - Pass Details

Date: 22 May 2021
Orbit: 417 x 422 km, 51.6° (Epoch: 13 June)

Event Time Altitude Azimuth Distance (km) Brightness Sun altitude
Rises 21:20:33 0° 263° (W) 2,361 0.8 -4.9°
Reaches altitude 10° 21:22:39 10° 266° (W) 1,499 -0.2 -5.2°
Maximum altitude 21:26:01 71° 351° (N) 448 -3.4 -5.6°
Drops below altitude 10° 21:29:23 10° 76° (ENE) 1,504 -1.3 -6.0°
Sets 21:31:30 0° 79° (E) 2,370 -0.3 -6.2°
